User: anonymous   Login
Location: Columbia
(38.9520°N, 92.3340°W)
Time: 15:07:01
(UTC-05:00)
Language:

CZ-4B R/B - Orbit

View from above orbital plane
View from above orbital plane
View from above satellite
View from above satellite

Ground track
Ground track

The orbit data is extracted from the following two-line orbital elements,

1 29093U 06015B   16148.19343564  .00002850  00000-0  76372-4 0  9994
2 29093  97.4832 245.1704 0067978 262.4598  96.8920 15.36574065558198
Epoch (UTC): 27 May 2016 04:38:32
Eccentricity: 0.0067978
inclination: 97.4832°
perigee height: 410 km
apogee height: 503 km
right ascension of ascending node: 245.1704°
argument of perigee: 262.4598°
revolutions per day: 15.36574065
mean anomaly at epoch: 96.8920°
orbit number at epoch: 55819

The dashed part of the orbit path shows where the satellite is in the earth's shadow,  

DLR